Carmi, IL

1:59 PM CDT on April 27, 2017 (GMT -0500)
Carmi Municipal

Weather History for KCUL - January, 2014

Change the Weather History Date:

Friday, January 17, 2014

  Actual Average (KEHR) Record (KEHR)
Temperature  
Mean Temperature 28 °F -  
Max Temperature 37 °F 39 °F 69 °F (1952)
Min Temperature 19 °F 26 °F -15 °F (1977)
Degree Days  
Heating Degree Days 37    
Moisture  
Dew Point 17 °F    
Average Humidity 75    
Maximum Humidity 95    
Minimum Humidity 60    
Precipitation  
Precipitation 0.00 in - - ()
Sea Level Pressure  
Sea Level Pressure 30.02 in    
Wind  
Wind Speed 13 mph (West)    
Max Wind Speed 24 mph    
Max Gust Speed 32 mph    
Visibility 9 miles    
Events Snow    
Averages and records for this station are not official NWS values.
T = Trace of Precipitation, MM = Missing Value Source: NWS Daily Summary

Daily Weather History Graph

Daily Weather History Graph

Search for Another Location

Airport or City:

Trip Planner

Search our weather history database for the weather conditions in past years. The results will help you decide how hot, cold, wet, or windy it might be!

Date:

Astronomy

Jan. 17, 2014 Rise Set
Actual Time 7:06 AM CST 4:58 PM CST
Civil Twilight 6:38 AM CST 5:27 PM CST
Nautical Twilight 6:05 AM CST 5:59 PM CST
Astronomical Twilight 5:34 AM CST 6:31 PM CST
Moon 6:42 PM CST (1/17) 7:36 AM CST (1/17)
Length of Visible Light 10h 49m
Length of Day
9h 52m
Full, 98% of the Moon is Illuminated
Jan 17
Full
Jan 23
Last Quarter
Jan 30
New
Feb 6
First Quarter
Feb 14
Full

Hourly Weather History & Observations

Time (CST) Temp. Windchill Dew Point Humidity Pressure Visibility Wind Dir Wind Speed Gust Speed Precip Events Conditions
12:15 AM 33.1 °F 26.9 °F 31.8 °F 95% 29.78 in 10.0 mi SSW 6.9 mph - N/A   Clear
12:35 AM 36.1 °F 27.7 °F 31.5 °F 83% 29.79 in 10.0 mi SW 12.7 mph - N/A   Scattered Clouds
12:55 AM 37.4 °F 27.8 °F 30.2 °F 75% 29.79 in 10.0 mi West 17.3 mph - N/A   Mostly Cloudy
1:15 AM 36.9 °F 27.1 °F 31.1 °F 80% 29.80 in 10.0 mi West 17.3 mph 24.2 mph N/A   Overcast
1:35 AM 35.6 °F 26.6 °F 29.7 °F 79% 29.81 in 10.0 mi West 13.8 mph 21.9 mph N/A   Overcast
1:55 AM 34.9 °F 25.7 °F 28.8 °F 78% 29.82 in 10.0 mi West 13.8 mph - N/A   Overcast
2:15 AM 34.7 °F 26.4 °F 28.6 °F 78% 29.82 in 10.0 mi West 11.5 mph 19.6 mph N/A   Mostly Cloudy
2:35 AM 34.0 °F 23.4 °F 28.6 °F 81% 29.83 in 10.0 mi NW 17.3 mph 23.0 mph N/A   Mostly Cloudy
2:55 AM 32.0 °F 21.6 °F 26.2 °F 79% 29.84 in 10.0 mi NW 15.0 mph 27.6 mph N/A   Overcast
3:15 AM 31.1 °F 20.1 °F 25.0 °F 78% 29.85 in 10.0 mi NW 16.1 mph 23.0 mph N/A   Overcast
3:35 AM 30.4 °F 18.0 °F 23.9 °F 77% 29.87 in 10.0 mi WNW 19.6 mph 26.5 mph N/A   Overcast
3:55 AM 29.3 °F 17.0 °F 24.6 °F 83% 29.87 in 5.0 mi West 18.4 mph 26.5 mph N/A Snow Light Snow
4:15 AM 27.5 °F 14.2 °F 19.8 °F 73% 29.89 in 10.0 mi WNW 19.6 mph 29.9 mph N/A   Overcast
4:35 AM 26.2 °F 11.2 °F 14.4 °F 61% 29.90 in 10.0 mi West 24.2 mph 32.2 mph N/A   Mostly Cloudy
4:55 AM 25.5 °F 12.4 °F 13.5 °F 60% 29.91 in 10.0 mi West 17.3 mph 31.1 mph N/A   Mostly Cloudy
5:15 AM 25.2 °F 10.4 °F 17.6 °F 73% 29.92 in 10.0 mi WNW 21.9 mph 27.6 mph N/A   Mostly Cloudy
5:35 AM 22.8 °F 8.5 °F 18.1 °F 82% 29.93 in 3.0 mi WNW 18.4 mph 31.1 mph N/A Snow Light Snow
5:55 AM 22.1 °F 8.9 °F 17.4 °F 82% 29.94 in 7.0 mi WNW 15.0 mph 23.0 mph N/A Snow Light Snow
6:15 AM 22.1 °F 8.5 °F 16.0 °F 77% 29.95 in 10.0 mi West 16.1 mph 23.0 mph N/A   Overcast
6:35 AM 21.7 °F 9.0 °F 15.1 °F 76% 29.96 in 10.0 mi WNW 13.8 mph - N/A   Mostly Cloudy
6:55 AM 21.0 °F 7.6 °F 15.4 °F 79% 29.97 in 4.0 mi WNW 15.0 mph 21.9 mph N/A Snow Light Snow
7:15 AM 20.1 °F 5.4 °F 16.5 °F 86% 29.99 in 2.0 mi West 17.3 mph 23.0 mph N/A Snow Light Snow
7:35 AM 19.2 °F 3.4 °F 11.3 °F 71% 29.99 in 10.0 mi West 19.6 mph 25.3 mph N/A   Overcast
7:55 AM 19.6 °F 5.2 °F 10.6 °F 68% 30.00 in 10.0 mi West 16.1 mph 19.6 mph N/A   Overcast
8:15 AM 19.6 °F 5.7 °F 9.7 °F 65% 30.01 in 10.0 mi WNW 15.0 mph - N/A   Overcast
8:35 AM 19.8 °F 5.9 °F 9.7 °F 65% 30.02 in 10.0 mi West 15.0 mph 23.0 mph N/A   Overcast
8:55 AM 19.9 °F 5.7 °F 10.0 °F 65% 30.02 in 10.0 mi WNW 16.1 mph 24.2 mph N/A   Mostly Cloudy
9:15 AM 20.1 °F 6.9 °F 10.4 °F 66% 30.02 in 10.0 mi West 13.8 mph 18.4 mph N/A   Overcast
9:35 AM 20.1 °F 8.1 °F 10.4 °F 66% 30.03 in 10.0 mi West 11.5 mph - N/A   Overcast
9:55 AM 19.8 °F 8.3 °F 11.5 °F 70% 30.04 in 7.0 mi West 10.4 mph - N/A   Overcast
10:15 AM 20.3 °F 7.2 °F 13.8 °F 76% 30.05 in 7.0 mi West 13.8 mph 17.3 mph N/A Snow Light Snow
10:35 AM 19.9 °F 7.3 °F 16.3 °F 86% 30.05 in 0.8 mi West 12.7 mph 17.3 mph N/A Snow Light Snow
10:55 AM 19.4 °F 5.5 °F 13.1 °F 76% 30.05 in 3.0 mi West 15.0 mph 23.0 mph N/A Snow Light Snow
11:15 AM 20.1 °F 4.2 °F 11.7 °F 70% 30.05 in 10.0 mi West 20.7 mph 27.6 mph N/A   Mostly Cloudy
11:35 AM 20.3 °F 4.8 °F 11.1 °F 68% 30.05 in 10.0 mi West 19.6 mph 26.5 mph N/A   Overcast
11:55 AM 20.7 °F 7.1 °F 11.1 °F 67% 30.04 in 10.0 mi West 15.0 mph 25.3 mph N/A   Overcast
12:15 PM 20.8 °F 5.5 °F 11.7 °F 68% 30.04 in 10.0 mi West 19.6 mph 24.2 mph N/A   Overcast
12:35 PM 21.0 °F 5.7 °F 11.8 °F 68% 30.04 in 10.0 mi West 19.6 mph 25.3 mph N/A   Overcast
12:55 PM 21.2 °F 5.6 °F 11.3 °F 66% 30.04 in 10.0 mi West 20.7 mph 24.2 mph N/A   Overcast
1:15 PM 20.8 °F 6.8 °F 11.1 °F 66% 30.05 in 10.0 mi West 16.1 mph - N/A   Overcast
1:35 PM 21.6 °F 8.2 °F 12.2 °F 67% 30.05 in 10.0 mi West 15.0 mph - N/A   Overcast
1:55 PM 21.9 °F 7.8 °F 11.8 °F 65% 30.06 in 10.0 mi West 17.3 mph 24.2 mph N/A   Overcast
2:15 PM 21.9 °F 9.2 °F 12.4 °F 67% 30.07 in 10.0 mi WNW 13.8 mph 19.6 mph N/A   Overcast
2:35 PM 21.9 °F 9.2 °F 12.9 °F 68% 30.08 in 10.0 mi WNW 13.8 mph 20.7 mph N/A   Overcast
2:55 PM 21.7 °F 8.5 °F 13.3 °F 70% 30.09 in 10.0 mi West 15.0 mph 20.7 mph N/A   Overcast
3:15 PM 22.1 °F 8.0 °F 12.6 °F 67% 30.09 in 10.0 mi West 17.3 mph - N/A   Overcast
3:35 PM 22.1 °F 8.0 °F 12.4 °F 66% 30.10 in 10.0 mi West 17.3 mph 23.0 mph N/A   Overcast
3:55 PM 21.9 °F 11.0 °F 12.9 °F 68% 30.11 in 10.0 mi WNW 10.4 mph 16.1 mph N/A   Overcast
4:15 PM 21.9 °F 11.0 °F 13.8 °F 71% 30.11 in 10.0 mi West 10.4 mph - N/A   Overcast
4:35 PM 21.4 °F 10.4 °F 14.0 °F 73% 30.11 in 10.0 mi West 10.4 mph - N/A   Overcast
4:55 PM 21.2 °F 11.7 °F 14.9 °F 77% 30.11 in 10.0 mi WNW 8.1 mph - N/A   Overcast
5:15 PM 21.2 °F 10.9 °F 14.7 °F 76% 30.12 in 10.0 mi WNW 9.2 mph - N/A   Overcast
5:35 PM 21.2 °F 13.6 °F 15.3 °F 78% 30.12 in 10.0 mi West 5.8 mph - N/A   Overcast
5:55 PM 21.2 °F 11.7 °F 15.8 °F 80% 30.13 in 10.0 mi West 8.1 mph - N/A   Overcast
6:15 PM 21.4 °F 11.1 °F 16.3 °F 81% 30.13 in 10.0 mi West 9.2 mph - N/A   Overcast
6:35 PM 21.7 °F 13.2 °F 16.7 °F 81% 30.13 in 10.0 mi West 6.9 mph - N/A   Overcast
6:55 PM 21.6 °F 13.0 °F 16.3 °F 80% 30.13 in 10.0 mi West 6.9 mph - N/A   Overcast
7:15 PM 21.2 °F 12.6 °F 16.3 °F 82% 30.13 in 10.0 mi West 6.9 mph - N/A   Overcast
7:35 PM 21.0 °F 13.4 °F 16.5 °F 83% 30.13 in 10.0 mi West 5.8 mph - N/A   Mostly Cloudy
7:55 PM 21.6 °F 15.3 °F 16.7 °F 82% 30.13 in 10.0 mi West 4.6 mph - N/A   Overcast
8:15 PM 21.7 °F 14.3 °F 16.7 °F 81% 30.14 in 10.0 mi West 5.8 mph - N/A   Overcast
8:35 PM 22.1 °F 12.0 °F 16.5 °F 79% 30.14 in 10.0 mi West 9.2 mph - N/A Snow Light Snow
8:55 PM 22.1 °F 13.7 °F 16.7 °F 80% 30.13 in 10.0 mi West 6.9 mph - N/A Snow Light Snow
9:15 PM 22.1 °F 13.7 °F 16.7 °F 80% 30.14 in 10.0 mi WSW 6.9 mph - N/A   Overcast
9:35 PM 22.1 °F 13.7 °F 16.0 °F 77% 30.13 in 10.0 mi WSW 6.9 mph - N/A   Overcast
9:55 PM 21.2 °F 16.4 °F 16.0 °F 80% 30.13 in 10.0 mi WSW 3.5 mph - N/A   Scattered Clouds
10:15 PM 22.1 °F 15.9 °F 16.7 °F 80% 30.13 in 10.0 mi SW 4.6 mph - N/A   Mostly Cloudy
10:35 PM 22.6 °F 15.3 °F 17.6 °F 81% 30.12 in 10.0 mi SW 5.8 mph - N/A   Overcast
10:55 PM 22.8 °F 16.7 °F 16.9 °F 78% 30.12 in 10.0 mi SW 4.6 mph - N/A   Overcast
11:15 PM 22.8 °F 15.5 °F 16.5 °F 77% 30.12 in 10.0 mi SW 5.8 mph - N/A   Overcast
11:35 PM 22.1 °F 13.7 °F 16.7 °F 80% 30.11 in 10.0 mi SW 6.9 mph - N/A   Overcast
11:55 PM 21.2 °F 12.6 °F 16.0 °F 80% 30.11 in 10.0 mi SSW 6.9 mph - N/A   Scattered Clouds